Tracking 28052 objects as of 21-Sep-2023
HD Live streaming from Space Station
objects crossing your sky now

STARLINK-3322

Track STARLINK-3322 now!
10-day predictions
STARLINK-3322 is classified as:


NORAD ID: 50838
Int'l Code: 2022-001AM
Perigee: 546.1 km
Apogee: 547.8 km
Inclination: 53.2 °
Period: 95.4 minutes
Semi major axis: 6917 km
RCS: Unknown
Launch date: January 6, 2022
Source: United States (US)
Launch site: AIR FORCE EASTERN TEST RANGE (AFETR)
Your satellite tracking list
Your tracking list is empty




NASA's NSSDC Master Catalog

Two Line Element Set (TLE):
1 50838U 22001AM  23263.71136324  .00005509  00000-0  36411-3 0  9999
2 50838  53.2150 259.3047 0001246 104.4224 255.6906 15.08822427 94311
Source of the keplerian elements: AFSPC